Home   Weather   37°52'N, 84°34'W   Past weeks
Flag for USA

Past Weather in 37°52'N, 84°34'W, USA — Yesterday and Last 2 Weeks

Now
58 °F

Passing clouds.


Feels Like: 56 °F
Forecast: 62 / 46 °F
Wind: 8 mph from Southwest

Location: Blue Grass Airport

Current Time: Oct 22, 2019 at 7:46:50 am

Latest Report: Oct 22, 2019 at 6:54 am


Visibility: 10 mi

Pressure: 29.83 "Hg

Humidity: 84%

Dew Point: 53 °F

Location of 37°52'N, 84°34'WLocation

Past Weather in 37°52'N, 84°34'W — Graph

°F

37°52'N, 84°34'W Temperature Yesterday

Maximum temperature yesterday: 79 °F (at 2:54 pm)
Minimum temperature yesterday: 58 °F (at 4:54 am)
Average temperature yesterday: 65 °F

High & Low Weather Summary for the Past Weeks

 TemperatureHumidityPressure
High82 °F (Oct 10, 3:54 pm)93% (Oct 8, 5:11 am)30.23 "Hg (Oct 8, 5:11 am)
Low37 °F (Oct 13, 4:54 am)23% (Oct 13, 4:54 pm)29.69 "Hg (Oct 16, 4:54 am)
Average58 °F67%30.02 "Hg
* Reported Oct 7 6:54 am — Oct 22 6:23 am, 37°52'N, 84°34'W. Weather by CustomWeather, © 2019

Note: Actual official high and low records may vary slightly from our data, if they occured in-between our weather recording intervals... More about our weather records

Advertising

37°52'N, 84°34'W Weather History for the Previous 24 Hours

Scroll right to see more
 ConditionsComfort  
Time TempWeatherWind HumidityBarometerVisibility
6:23 am
Tue, Oct 22
60 °FPassing clouds.7 mph80%29.84 "Hg10 mi
5:54 am60 °FPassing clouds.10 mph83%29.81 "Hg10 mi
5:28 am61 °FMostly cloudy.9 mph81%29.82 "Hg10 mi
4:54 am61 °FMostly cloudy.6 mph83%29.81 "Hg10 mi
3:54 am61 °FOvercast.7 mph83%29.78 "Hg10 mi
2:54 am62 °FOvercast.8 mph80%29.78 "Hg10 mi
1:54 am62 °FPassing clouds.7 mph83%29.80 "Hg10 mi
12:54 am63 °FOvercast.9 mph81%29.82 "Hg10 mi
12:33 am63 °FMostly cloudy.9 mph84%29.83 "Hg10 mi
11:54 pm
Mon, Oct 21
63 °FMostly cloudy.12 mph84%29.82 "Hg10 mi
10:54 pm63 °FLight rain. Mostly cloudy.12 mph84%29.81 "Hg10 mi
9:54 pm63 °FOvercast.12 mph84%29.80 "Hg10 mi
8:54 pm63 °FLight rain. Passing clouds.14 mph84%29.80 "Hg10 mi
7:54 pm64 °FLight rain. Mostly cloudy.14 mph81%29.81 "Hg5 mi
6:54 pm64 °FLight rain. Mostly cloudy.13 mph81%29.79 "Hg9 mi
5:54 pm65 °FRain. Mostly cloudy.13 mph85%29.81 "Hg5 mi
5:08 pm67 °FLight rain. Mostly cloudy.16 mph85%29.82 "Hg2 mi
4:41 pm66 °FLight rain. Cloudy.12 mph84%29.82 "Hg3 mi
4:35 pm66 °FRain. Mostly cloudy.10 mph81%29.82 "Hg1 mi
3:54 pm76 °FMore clouds than sun.25 mph52%29.75 "Hg10 mi
2:54 pm79 °FPassing clouds.30 mph48%29.76 "Hg10 mi
1:54 pm75 °FPartly sunny.20 mph55%29.79 "Hg10 mi
12:54 pm73 °FPartly sunny.17 mph57%29.80 "Hg10 mi
11:54 am73 °FSunny.17 mph59%29.81 "Hg10 mi
10:54 am66 °FPassing clouds.16 mph73%29.82 "Hg10 mi
9:54 am64 °FSunny.12 mph75%29.84 "Hg10 mi
8:54 am60 °FSunny.10 mph83%29.85 "Hg10 mi
7:54 am58 °FSunny.8 mph84%29.86 "Hg10 mi
Weather by CustomWeather, © 2019

See weather overview